Date,TemperatureHighF,TemperatureAvgF,TemperatureLowF,DewpointHighF,DewpointAvgF,DewpointLowF,HumidityHigh,HumidityAvg,HumidityLow,PressureMaxIn,PressureMinIn,WindSpeedMaxMPH,WindSpeedAvgMPH,GustSpeedMaxMPH,PrecipitationSumIn
2013-2-1,39.4,34.8,24.3,32.2,18.0,6.7,77,53,27,30.17,29.66,8,3,0,0.00
2013-2-2,44.1,33.4,18.9,38.1,17.5,10.9,85,54,34,30.18,29.80,6,2,0,0.00
2013-2-3,48.4,41.1,33.3,40.2,33.3,26.7,98,76,54,29.79,29.63,6,2,0,0.00
2013-2-4,49.1,38.0,25.7,32.2,27.5,24.2,98,68,43,29.96,29.79,4,1,0,0.00
2013-2-5,60.6,46.1,37.9,41.0,37.1,32.6,97,72,46,29.81,29.69,6,2,0,0.00
2013-2-6,63.1,45.7,32.5,40.7,33.9,27.2,98,69,27,30.11,29.79,6,1,0,0.00
2013-2-7,49.5,41.7,35.2,44.2,39.8,34.7,98,93,79,30.15,29.80,6,2,0,0.50
2013-2-8,55.2,45.3,38.8,50.3,42.3,33.2,98,90,66,29.87,29.63,7,3,0,0.72
2013-2-9,53.8,39.8,29.5,33.3,27.8,21.5,98,66,28,30.18,29.87,6,2,0,0.00
2013-2-10,54.5,40.1,27.1,43.9,27.8,23.3,98,65,32,30.30,30.01,6,1,0,0.02
2013-2-11,63.0,56.2,44.1,62.4,55.6,43.6,98,98,98,30.01,29.72,7,2,0,0.07
2013-2-12,61.5,53.0,44.8,55.9,40.6,32.7,98,66,36,29.89,29.72,6,2,0,0.00
2013-2-13,48.9,45.8,41.4,46.8,44.7,39.5,98,96,73,29.77,29.44,5,1,0,0.30
2013-2-14,52.0,41.0,30.2,39.8,36.3,29.7,98,85,59,29.90,29.67,5,1,0,0.01
2013-2-15,63.1,45.3,30.4,45.4,36.7,29.9,98,76,40,29.93,29.75,5,1,0,0.00
2013-2-16,44.4,36.3,30.2,39.1,34.7,29.7,98,94,79,29.81,29.66,4,1,0,0.24
2013-2-17,38.5,29.6,22.3,29.7,18.5,11.9,98,66,34,30.13,29.76,9,3,0,0.10
2013-2-18,54.5,35.3,18.7,31.0,22.0,17.0,98,64,30,30.26,30.10,6,1,0,0.05
2013-2-19,51.4,44.1,36.5,50.9,41.9,30.7,98,92,72,30.09,29.69,7,2,0,0.13
2013-2-20,54.0,40.5,28.8,39.8,24.3,14.1,98,57,21,29.98,29.80,5,2,0,0.00
2013-2-21,57.4,40.1,25.2,28.4,23.8,19.2,94,56,25,30.10,29.95,4,1,0,0.00
2013-2-22,41.4,36.1,32.0,37.8,34.0,25.3,98,93,54,30.20,29.97,4,1,0,0.42
2013-2-23,43.0,39.7,35.6,42.5,39.2,35.1,98,98,98,29.95,29.64,5,1,0,0.94
2013-2-24,63.0,49.1,37.2,50.9,41.0,32.9,98,77,38,29.88,29.64,5,2,0,0.05
2013-2-25,44.1,37.0,32.2,34.0,29.0,26.1,92,74,56,30.08,29.88,6,2,0,0.00
2013-2-26,56.8,45.5,34.0,56.2,44.0,29.4,98,94,78,29.99,29.39,9,2,0,0.96
2013-2-27,59.9,49.6,42.3,46.9,43.7,41.8,98,82,54,29.63,29.46,6,2,0,0.00
2013-2-28,49.1,41.7,31.8,43.6,35.7,31.1,98,81,53,29.72,29.55,5,1,0,0.00